When you browse on this site, cookies collect data to enhance your experience and personalize the content and advertising you see.
Visit our Privacy Policy to learn more. By continuing to use the site, you agree to this use of cookies and data.
  • In Deutschland
  • Länderverzeichnis
  • Für 7 Tage
  • Wassertemperatur
  • Wetterkarte
  • Widgets
  • user-avatar
    Anmelden

    Stündliche Wetter Kitzbühel

    Heute, 4 Juni, Donnerstag

    Zeit Temperatur Niederschläge Wind Luftdruck Luftfeuchtigkeit
    00:00 +10°C° 0 mm 2 m/S 668 mmHg 81%
    01:00 +10°C° 0 mm 2 m/S 667 mmHg 80%
    02:00 +9°C° 0 mm 2 m/S 667 mmHg 81%
    03:00 +9°C° 0 mm 2 m/S 666 mmHg 82%
    04:00 +8°C° 0 mm 2 m/S 666 mmHg 83%
    05:00 +10°C° 0 mm 2 m/S 666 mmHg 80%
    06:00 +13°C° 0 mm 1 m/S 666 mmHg 76%
    07:00 +14°C° 0 mm 1 m/S 667 mmHg 72%
    08:00 +16°C° 0 mm 1 m/S 667 mmHg 65%
    09:00 +19°C° 0 mm 1 m/S 667 mmHg 58%
    10:00 +21°C° 0 mm 1 m/S 667 mmHg 51%
    11:00 +21°C° 0.1 mm 1 m/S 667 mmHg 55%
    12:00 +19°C° 0.1 mm 2 m/S 667 mmHg 58%
    13:00 +19°C° 0.1 mm 2 m/S 666 mmHg 61%
    14:00 +18°C° 1.1 mm 2 m/S 666 mmHg 71%
    15:00 +16°C° 1.1 mm 2 m/S 665 mmHg 80%
    16:00 +15°C° 1.1 mm 2 m/S 665 mmHg 89%
    17:00 +14°C° 1 mm 1 m/S 664 mmHg 90%
    18:00 +13°C° 1 mm 1 m/S 664 mmHg 92%
    19:00 +12°C° 1 mm 1 m/S 664 mmHg 93%
    20:00 +12°C° 0.7 mm 1 m/S 664 mmHg 94%
    21:00 +11°C° 0.7 mm 1 m/S 664 mmHg 96%
    22:00 +10°C° 0.7 mm 0 m/S 664 mmHg 97%
    23:00 +10°C° 1.4 mm 1 m/S 663 mmHg 97%

    Morgen, 5 Juni, Freitag

    Zeit Temperatur Niederschläge Wind Luftdruck Luftfeuchtigkeit
    00:00 +10°C° 1.4 mm 1 m/S 663 mmHg 98%
    01:00 +10°C° 1.4 mm 1 m/S 663 mmHg 98%
    02:00 +10°C° 1.3 mm 1 m/S 663 mmHg 97%
    03:00 +9°C° 1.3 mm 1 m/S 663 mmHg 97%
    04:00 +9°C° 1.3 mm 1 m/S 663 mmHg 97%
    05:00 +9°C° 1.2 mm 1 m/S 663 mmHg 97%
    06:00 +8°C° 1.2 mm 0 m/S 663 mmHg 97%
    07:00 +8°C° 1.2 mm 0 m/S 664 mmHg 97%
    08:00 +8°C° 1.5 mm 0 m/S 664 mmHg 97%
    09:00 +9°C° 1.5 mm 1 m/S 665 mmHg 97%
    10:00 +9°C° 1.5 mm 1 m/S 665 mmHg 97%
    11:00 +10°C° 0.4 mm 1 m/S 665 mmHg 91%
    12:00 +12°C° 0.4 mm 1 m/S 666 mmHg 85%
    13:00 +13°C° 0.4 mm 1 m/S 666 mmHg 79%
    14:00 +12°C° 0.2 mm 0 m/S 666 mmHg 76%
    15:00 +13°C° 0.2 mm 0 m/S 666 mmHg 73%
    16:00 +13°C° 0.2 mm 0 m/S 666 mmHg 70%
    17:00 +13°C° 0.1 mm 0 m/S 667 mmHg 73%
    18:00 +12°C° 0.1 mm 0 m/S 667 mmHg 76%
    19:00 +11°C° 0.1 mm 0 m/S 667 mmHg 79%
    20:00 +11°C° 0 mm 1 m/S 667 mmHg 82%
    21:00 +9°C° 0 mm 1 m/S 667 mmHg 85%
    22:00 +8°C° 0 mm 1 m/S 667 mmHg 87%
    23:00 +7°C° 0 mm 2 m/S 667 mmHg 87%

    übermorgen, 6 Juni, Samstag

    Zeit Temperatur Niederschläge Wind Luftdruck Luftfeuchtigkeit
    00:00 +6°C° 0 mm 2 m/S 667 mmHg 87%
    01:00 +6°C° 0 mm 2 m/S 667 mmHg 87%
    02:00 +6°C° 0 mm 2 m/S 668 mmHg 86%
    03:00 +6°C° 0 mm 2 m/S 668 mmHg 86%
    04:00 +6°C° 0 mm 2 m/S 668 mmHg 85%
    05:00 +9°C° 0 mm 1 m/S 669 mmHg 80%
    06:00 +11°C° 0 mm 1 m/S 669 mmHg 74%
    07:00 +13°C° 0 mm 1 m/S 670 mmHg 69%
    08:00 +15°C° 0 mm 1 m/S 671 mmHg 65%
    09:00 +16°C° 0 mm 1 m/S 671 mmHg 61%
    10:00 +19°C° 0 mm 1 m/S 672 mmHg 57%
    11:00 +19°C° 0.1 mm 1 m/S 672 mmHg 58%
    12:00 +18°C° 0.1 mm 2 m/S 672 mmHg 59%
    13:00 +19°C° 0.1 mm 2 m/S 671 mmHg 60%
    14:00 +17°C° 0.4 mm 2 m/S 671 mmHg 70%
    15:00 +16°C° 0.4 mm 2 m/S 671 mmHg 79%
    16:00 +15°C° 0.4 mm 2 m/S 670 mmHg 88%
    17:00 +14°C° 1.3 mm 1 m/S 670 mmHg 91%
    18:00 +13°C° 1.3 mm 1 m/S 670 mmHg 95%
    19:00 +12°C° 1.3 mm 1 m/S 670 mmHg 98%
    20:00 +12°C° 1.3 mm 1 m/S 671 mmHg 98%
    21:00 +12°C° 1.3 mm 1 m/S 671 mmHg 98%
    22:00 +11°C° 1.3 mm 1 m/S 671 mmHg 98%
    23:00 +11°C° 0.9 mm 1 m/S 671 mmHg 98%

    7 Juni, Sonntag

    Zeit Temperatur Niederschläge Wind Luftdruck Luftfeuchtigkeit
    00:00 +11°C° 0.9 mm 1 m/S 671 mmHg 98%
    01:00 +11°C° 0.9 mm 1 m/S 671 mmHg 98%
    02:00 +11°C° 0.1 mm 1 m/S 671 mmHg 98%
    03:00 +11°C° 0.1 mm 1 m/S 671 mmHg 97%
    04:00 +9°C° 0.1 mm 0 m/S 671 mmHg 97%
    05:00 +10°C° 0.1 mm 0 m/S 671 mmHg 96%
    06:00 +11°C° 0.1 mm 0 m/S 671 mmHg 95%
    07:00 +11°C° 0.1 mm 0 m/S 672 mmHg 94%
    08:00 +13°C° 0.3 mm 1 m/S 672 mmHg 93%
    09:00 +13°C° 0.3 mm 1 m/S 672 mmHg 92%
    10:00 +13°C° 0.3 mm 1 m/S 672 mmHg 92%
    11:00 +14°C° 0.2 mm 1 m/S 672 mmHg 90%
    12:00 +14°C° 0.2 mm 1 m/S 672 mmHg 89%
    13:00 +14°C° 0.2 mm 1 m/S 672 mmHg 88%
    14:00 +13°C° 1.3 mm 2 m/S 672 mmHg 91%
    15:00 +12°C° 1.3 mm 2 m/S 672 mmHg 94%
    16:00 +10°C° 1.3 mm 2 m/S 672 mmHg 97%
    17:00 +9°C° 0.8 mm 2 m/S 672 mmHg 98%
    18:00 +9°C° 0.8 mm 1 m/S 672 mmHg 98%
    19:00 +9°C° 0.8 mm 1 m/S 672 mmHg 99%
    20:00 +9°C° 0.9 mm 1 m/S 672 mmHg 99%
    21:00 +8°C° 0.9 mm 1 m/S 672 mmHg 99%
    22:00 +7°C° 0.9 mm 0 m/S 673 mmHg 99%
    23:00 +7°C° 1 mm 0 m/S 673 mmHg 99%

    8 Juni, Montag

    Zeit Temperatur Niederschläge Wind Luftdruck Luftfeuchtigkeit
    00:00 +7°C° 1 mm 0 m/S 673 mmHg 99%
    01:00 +7°C° 1 mm 0 m/S 672 mmHg 99%
    02:00 +8°C° 0.9 mm 1 m/S 672 mmHg 99%
    03:00 +8°C° 0.9 mm 1 m/S 672 mmHg 99%
    04:00 +8°C° 0.9 mm 1 m/S 672 mmHg 99%
    05:00 +8°C° 1.4 mm 1 m/S 672 mmHg 99%
    06:00 +8°C° 1.4 mm 1 m/S 672 mmHg 99%
    07:00 +8°C° 1.4 mm 1 m/S 673 mmHg 99%
    08:00 +8°C° 1.6 mm 1 m/S 673 mmHg 98%
    09:00 +8°C° 1.6 mm 1 m/S 673 mmHg 98%
    10:00 +7°C° 1.6 mm 0 m/S 673 mmHg 98%
    11:00 +7°C° 0.4 mm 0 m/S 673 mmHg 97%
    12:00 +7°C° 0.4 mm 0 m/S 673 mmHg 97%
    13:00 +7°C° 0.4 mm 0 m/S 673 mmHg 96%
    14:00 +9°C° 0.1 mm 1 m/S 673 mmHg 95%
    15:00 +9°C° 0.1 mm 1 m/S 673 mmHg 94%
    16:00 +9°C° 0.1 mm 1 m/S 673 mmHg 94%
    17:00 +9°C° 0.9 mm 1 m/S 673 mmHg 95%
    18:00 +9°C° 0.9 mm 1 m/S 673 mmHg 96%
    19:00 +9°C° 0.9 mm 1 m/S 673 mmHg 96%
    20:00 +8°C° 0.7 mm 1 m/S 673 mmHg 96%
    21:00 +8°C° 0.7 mm 1 m/S 674 mmHg 96%
    22:00 +8°C° 0.7 mm 1 m/S 674 mmHg 96%
    23:00 +7°C° 0.2 mm 1 m/S 674 mmHg 95%

    9 Juni, Dienstag

    Zeit Temperatur Niederschläge Wind Luftdruck Luftfeuchtigkeit
    00:00 +7°C° 0.2 mm 1 m/S 674 mmHg 95%
    01:00 +7°C° 0.2 mm 1 m/S 674 mmHg 94%
    02:00 +7°C° 0.6 mm 1 m/S 674 mmHg 95%
    03:00 +7°C° 0.6 mm 1 m/S 674 mmHg 95%
    04:00 +7°C° 0.6 mm 1 m/S 674 mmHg 96%
    05:00 +7°C° 1.6 mm 1 m/S 674 mmHg 96%
    06:00 +7°C° 1.6 mm 1 m/S 675 mmHg 97%
    07:00 +7°C° 1.6 mm 1 m/S 675 mmHg 98%
    08:00 +8°C° 1 mm 1 m/S 675 mmHg 97%
    09:00 +8°C° 1 mm 1 m/S 675 mmHg 97%
    10:00 +8°C° 1 mm 1 m/S 675 mmHg 97%
    11:00 +9°C° 0.3 mm 1 m/S 676 mmHg 94%
    12:00 +10°C° 0.3 mm 1 m/S 676 mmHg 92%
    13:00 +10°C° 0.3 mm 1 m/S 676 mmHg 89%
    14:00 +11°C° 0.1 mm 1 m/S 676 mmHg 88%
    15:00 +11°C° 0.1 mm 1 m/S 676 mmHg 86%
    16:00 +12°C° 0.1 mm 1 m/S 676 mmHg 85%
    17:00 +11°C° 0.1 mm 1 m/S 676 mmHg 86%
    18:00 +10°C° 0.1 mm 0 m/S 676 mmHg 87%
    19:00 +10°C° 0.1 mm 0 m/S 676 mmHg 89%
    20:00 +9°C° 0 mm 0 m/S 676 mmHg 90%
    21:00 +9°C° 0 mm 1 m/S 676 mmHg 92%
    22:00 +8°C° 0 mm 1 m/S 677 mmHg 93%
    23:00 +7°C° 0 mm 1 m/S 676 mmHg 94%
    Mehr zeigen